Results
2019 Flip Flop Regatta
First Gun Time: 12:00:00 Wind Range: M Race Conditions:
FinishFleetNameYacht NameClubSail No.Boat TypeRatingSailPlaceNotes
TimeCFG
-JAM 2Thomas, RobertWingsSquantum YC2932J/24681.1C9
-JAM 2McMackin, DanielSaoirseNahant Dory Club4837Catalina 30673.7C9
-CMcCarthy, DanielKnotty LadyEastern YC9E33579.8R12
04:46:52DPomer, JohnOpheliaCottage Park YC281Capri 22 WK Catalina699.7R5
04:42:31JAM 2Wood, MichaelLast Mango-3577Caliber 35669.3C6
04:35:00CDowell, PaulineKonik Morski-0Beneteau Oceanis 361608.2R10
04:13:49JAM 2Moreno, Daniel & Riley, AdamLightningPiers Park Sailing Ctr2Sonar689.4C5
04:13:49CTubman, RichardCharisma 3Constit. YC252208Jeanneau Sun Fast 35582.5R9
04:12:43DJacob, BrianGotta JibbooHull YC32844Pearson 32634.6R4
04:10:09JAM 2Sailing, Courageous Blue Note-0Cs 30667.8C4
04:09:37DGillespie, DonHoudiniOther41233Tartan 28661.7R3
04:08:10CStevenson, KMontanaBoston Sailing Ctr0J/27604.6R8
04:06:27JAM 1Schnabel, LenMAXAMIHull YC33954J/34626.0C7
04:05:23CSailing, CourageousCourageous J/80 #88 BlueCourageous SC88J/80607.5R7
04:04:33CShanck, SteveStep by Step-0Beneteau 423615.0R6
04:03:25CDanny NoenickxCourageous Sailing J/80 #220-220J/80607.5R5
03:59:52JAM 2Soule, PeterSaylavee-51353Beneteau Oceanis 311680.7C3
03:53:10DLeafgren, LukeDesperadoSavin Hill YC1071Thunderbird692.4R2
03:52:39JAM 1Burton, SandyPearlNahant Dory Club51779Beneteau First 36.7579.4C6
03:51:00JAM 2Anderson, TomNonpareilMarblehead YC31538C&C 32663.1C2
03:50:48DKavanagh, SteveMysterious WaysSavin Hill YC1192Thunderbird692.4R1
03:50:30JAM 1Hosking, Linda AresBoston YC30078C&C 40-2 TR596.3C5
03:50:14JAM 1Talbot, JeffreyMorris the CatWinthrop YC295Dehler 34643.3C4
03:49:50CHarper, AddisonAmigoCourageous SC99J/80607.5R4
03:48:11JAM 1Shiman-Hackett, FrancisPinchy-61051Jeanneau Sun Odyssey 379610.1C3
03:46:52JAM 2Pitt, BrianHarrierSavin Hill YC4427CS 30667.8C1
03:45:19BMoylan, KevinTempoWessagussett YC41915J/35558.1R9
03:44:56BMolinie, BenoitCrazy HorseDolphin YC42001Taylor 40-3544.4R8
03:43:33CFitzgerald, Mark & MarkTongaSavin Hill YC40635Baltic 35594.7R3
03:42:39BMorse, GregBig FishScituate Harbor YC60363Beneteau 36.7558.0R7
03:41:53JAM 1Vachon, MadelineSyzygy-40883Catalina 38631.6C2
03:41:49ADreese, MichaelToothface2-128Akilaria Class 40 RC3459.0R8
03:40:34CLegler, Kenneth & Sailing, CourageousMojitoCourageous SC32627C&C 35-3609.1R2
03:39:41JAM 1Belliveau, ScottKAOSMattapoisett YC41880Frers 41 TM564.2C1
03:38:27CFinn, BillSparkle PonySavin Hill YC12033Kirie Elite 37589.8R1
03:37:26BCurtis, ThomasMagpieHingham YC147J/100560.5R6
03:35:50AWarren, AnthonyMore Cowbell-52369Beneteau First 40.7532.9R7
03:35:14AZorfas, JasonRicochet-50316J/120519.8R6
03:34:05APeirce, RichMooseHull YC145J/120 R Carbon Rig514.9R5
03:33:54ADiMattia, RalphShamrock Sensation25279Nelson Marek 40531.7R4
03:33:40BIsaacson, PeterUproarConstit. YC55J/105563.9R5
03:33:05AClark, Steve Red HerringBristol YC121Custom Ketch451.5R3
03:32:54BRyley, LanceRockIt 2.0Constit. YC52816Columbia 30-2 Sport548.8R4
03:31:34BBoyd, Dan & Wiest, MitchWildthingCottage Park YC272J/109558.2R3
03:28:35AAlexander, DavePressure DropConstit. YC61430Arcona 430515.0R2
03:26:30BPowers, Dave and Tom/Crimmins, JoeAgoraConstit. YC52475Beneteau 36.7562.0R2
03:24:22BZibailo, ChristopherDopodomaniConstit. YC11235J/112E539.5R1
03:22:47AMcCombs, BetsyScherherazadeEastern YC39512Farr 395 R514.0R1
Cancel/Exit Contact Event OrganizersRegional Events ListHelp
© Copyright: 2019 Regatta Management Solutions August 24, 2019 21:20:22